When you browse on this site, cookies collect data to enhance your experience and personalize the content and advertising you see.
Visit our Privacy Policy to learn more. By continuing to use the site, you agree to this use of cookies and data.
  • In Österreich
  • Länderverzeichnis
  • Für 7 Tage
  • Wassertemperatur
  • Satellitenkarten
  • Wetterkarte
  • News
  • Widgets
  • user-avatar
    Anmelden

    Stündliche Wetter Asadabad

    Heute, 22 April, Montag

    Zeit Temperatur Niederschläge Wind Luftdruck Luftfeuchtigkeit
    00:00 +19°C° 0.1 mm 2 m/S 657 mmHg 46%
    01:00 +19°C° 0.1 mm 2 m/S 657 mmHg 45%
    02:00 +19°C° 0.1 mm 2 m/S 657 mmHg 44%
    03:00 +18°C° 0 mm 2 m/S 657 mmHg 43%
    04:00 +18°C° 0 mm 3 m/S 657 mmHg 43%
    05:00 +17°C° 0 mm 3 m/S 657 mmHg 43%
    06:00 +19°C° 0 mm 2 m/S 657 mmHg 40%
    07:00 +21°C° 0 mm 2 m/S 658 mmHg 36%
    08:00 +23°C° 0 mm 1 m/S 658 mmHg 33%
    09:00 +25°C° 0 mm 1 m/S 659 mmHg 31%
    10:00 +26°C° 0 mm 1 m/S 659 mmHg 30%
    11:00 +27°C° 0 mm 1 m/S 659 mmHg 28%
    12:00 +27°C° 0 mm 2 m/S 659 mmHg 28%
    13:00 +28°C° 0 mm 2 m/S 659 mmHg 27%
    14:00 +29°C° 0 mm 2 m/S 659 mmHg 27%
    15:00 +29°C° 0 mm 2 m/S 659 mmHg 27%
    16:00 +29°C° 0 mm 2 m/S 659 mmHg 28%
    17:00 +28°C° 0 mm 2 m/S 658 mmHg 28%
    18:00 +26°C° 0.1 mm 2 m/S 658 mmHg 34%
    19:00 +25°C° 0.1 mm 1 m/S 658 mmHg 41%
    20:00 +23°C° 0.1 mm 1 m/S 658 mmHg 47%
    21:00 +21°C° 0.1 mm 2 m/S 658 mmHg 46%
    22:00 +21°C° 0.1 mm 2 m/S 658 mmHg 44%
    23:00 +20°C° 0.1 mm 3 m/S 659 mmHg 42%

    Morgen, 23 April, Dienstag

    Zeit Temperatur Niederschläge Wind Luftdruck Luftfeuchtigkeit
    00:00 +20°C° 0.1 mm 3 m/S 659 mmHg 41%
    01:00 +20°C° 0.1 mm 3 m/S 659 mmHg 40%
    02:00 +19°C° 0.1 mm 3 m/S 658 mmHg 39%
    03:00 +19°C° 0 mm 3 m/S 658 mmHg 38%
    04:00 +18°C° 0 mm 3 m/S 658 mmHg 38%
    05:00 +18°C° 0 mm 3 m/S 658 mmHg 38%
    06:00 +20°C° 0 mm 3 m/S 658 mmHg 35%
    07:00 +21°C° 0 mm 3 m/S 659 mmHg 33%
    08:00 +24°C° 0 mm 2 m/S 659 mmHg 30%
    09:00 +25°C° 0 mm 2 m/S 660 mmHg 28%
    10:00 +27°C° 0 mm 1 m/S 660 mmHg 26%
    11:00 +28°C° 0 mm 1 m/S 660 mmHg 24%
    12:00 +28°C° 0 mm 2 m/S 660 mmHg 24%
    13:00 +29°C° 0 mm 2 m/S 660 mmHg 25%
    14:00 +29°C° 0 mm 3 m/S 660 mmHg 25%
    15:00 +29°C° 0 mm 2 m/S 659 mmHg 26%
    16:00 +29°C° 0 mm 2 m/S 659 mmHg 27%
    17:00 +29°C° 0 mm 2 m/S 659 mmHg 28%
    18:00 +27°C° 0.1 mm 2 m/S 659 mmHg 33%
    19:00 +26°C° 0.1 mm 1 m/S 659 mmHg 38%
    20:00 +24°C° 0.1 mm 1 m/S 659 mmHg 43%
    21:00 +23°C° 0.2 mm 2 m/S 659 mmHg 46%
    22:00 +22°C° 0.2 mm 3 m/S 659 mmHg 48%
    23:00 +21°C° 0.2 mm 3 m/S 660 mmHg 51%

    übermorgen, 24 April, Mittwoch

    Zeit Temperatur Niederschläge Wind Luftdruck Luftfeuchtigkeit
    00:00 +21°C° 0.3 mm 3 m/S 659 mmHg 53%
    01:00 +20°C° 0.3 mm 3 m/S 659 mmHg 55%
    02:00 +19°C° 0.3 mm 3 m/S 658 mmHg 58%
    03:00 +19°C° 0.2 mm 3 m/S 658 mmHg 58%
    04:00 +19°C° 0.2 mm 3 m/S 658 mmHg 59%
    05:00 +18°C° 0.2 mm 3 m/S 658 mmHg 60%
    06:00 +19°C° 0.3 mm 3 m/S 658 mmHg 57%
    07:00 +20°C° 0.3 mm 3 m/S 659 mmHg 55%
    08:00 +21°C° 0.3 mm 2 m/S 659 mmHg 53%
    09:00 +21°C° 0.1 mm 2 m/S 659 mmHg 52%
    10:00 +21°C° 0.1 mm 2 m/S 660 mmHg 51%
    11:00 +23°C° 0.1 mm 2 m/S 660 mmHg 50%
    12:00 +24°C° 0.1 mm 2 m/S 660 mmHg 48%
    13:00 +24°C° 0.1 mm 2 m/S 659 mmHg 46%
    14:00 +25°C° 0.1 mm 3 m/S 659 mmHg 45%
    15:00 +24°C° 0.9 mm 2 m/S 658 mmHg 50%
    16:00 +23°C° 0.9 mm 1 m/S 658 mmHg 56%
    17:00 +22°C° 0.9 mm 1 m/S 657 mmHg 61%
    18:00 +20°C° 2.5 mm 2 m/S 657 mmHg 67%
    19:00 +19°C° 2.5 mm 2 m/S 657 mmHg 72%
    20:00 +18°C° 2.5 mm 3 m/S 657 mmHg 78%
    21:00 +18°C° 0.4 mm 2 m/S 658 mmHg 76%
    22:00 +18°C° 0.4 mm 2 m/S 658 mmHg 73%
    23:00 +18°C° 0.4 mm 2 m/S 658 mmHg 71%

    25 April, Donnerstag

    Zeit Temperatur Niederschläge Wind Luftdruck Luftfeuchtigkeit
    00:00 +18°C° 0.8 mm 2 m/S 658 mmHg 72%
    01:00 +17°C° 0.8 mm 2 m/S 657 mmHg 74%
    02:00 +18°C° 0.8 mm 1 m/S 657 mmHg 75%
    03:00 +16°C° 0.2 mm 2 m/S 657 mmHg 74%
    04:00 +16°C° 0.2 mm 2 m/S 657 mmHg 74%
    05:00 +16°C° 0.2 mm 2 m/S 657 mmHg 73%
    06:00 +17°C° 0.1 mm 2 m/S 658 mmHg 68%
    07:00 +19°C° 0.1 mm 2 m/S 658 mmHg 62%
    08:00 +21°C° 0.1 mm 1 m/S 659 mmHg 57%
    09:00 +21°C° 0.3 mm 2 m/S 659 mmHg 53%
    10:00 +23°C° 0.3 mm 2 m/S 659 mmHg 49%
    11:00 +24°C° 0.3 mm 2 m/S 659 mmHg 45%
    12:00 +25°C° 0.3 mm 2 m/S 659 mmHg 42%
    13:00 +26°C° 0.3 mm 3 m/S 659 mmHg 40%
    14:00 +26°C° 0.3 mm 3 m/S 659 mmHg 37%
    15:00 +26°C° 0.4 mm 3 m/S 659 mmHg 38%
    16:00 +26°C° 0.4 mm 3 m/S 658 mmHg 39%
    17:00 +26°C° 0.4 mm 3 m/S 658 mmHg 40%
    18:00 +24°C° 0.8 mm 3 m/S 658 mmHg 45%
    19:00 +22°C° 0.8 mm 3 m/S 658 mmHg 51%
    20:00 +20°C° 0.8 mm 2 m/S 658 mmHg 57%
    21:00 +19°C° 0.8 mm 3 m/S 658 mmHg 59%
    22:00 +18°C° 0.8 mm 3 m/S 658 mmHg 60%
    23:00 +17°C° 0.8 mm 4 m/S 658 mmHg 62%

    26 April, Freitag

    Zeit Temperatur Niederschläge Wind Luftdruck Luftfeuchtigkeit
    00:00 +17°C° 0.6 mm 4 m/S 658 mmHg 61%
    01:00 +17°C° 0.6 mm 4 m/S 657 mmHg 60%
    02:00 +16°C° 0.6 mm 3 m/S 657 mmHg 59%
    03:00 +16°C° 0.4 mm 3 m/S 657 mmHg 58%
    04:00 +16°C° 0.4 mm 3 m/S 657 mmHg 57%
    05:00 +16°C° 0.4 mm 3 m/S 657 mmHg 56%
    06:00 +17°C° 0.1 mm 3 m/S 658 mmHg 52%
    07:00 +19°C° 0.1 mm 2 m/S 658 mmHg 47%
    08:00 +20°C° 0.1 mm 2 m/S 659 mmHg 42%
    09:00 +21°C° 0.1 mm 2 m/S 659 mmHg 41%
    10:00 +24°C° 0.1 mm 2 m/S 660 mmHg 39%
    11:00 +25°C° 0.1 mm 2 m/S 660 mmHg 38%
    12:00 +25°C° 0.1 mm 2 m/S 660 mmHg 37%
    13:00 +26°C° 0.1 mm 2 m/S 659 mmHg 35%
    14:00 +26°C° 0.1 mm 3 m/S 659 mmHg 34%
    15:00 +26°C° 0.2 mm 3 m/S 659 mmHg 34%
    16:00 +26°C° 0.2 mm 3 m/S 659 mmHg 34%
    17:00 +26°C° 0.2 mm 2 m/S 659 mmHg 34%
    18:00 +24°C° 0.4 mm 2 m/S 659 mmHg 41%
    19:00 +23°C° 0.4 mm 1 m/S 659 mmHg 48%
    20:00 +21°C° 0.4 mm 1 m/S 658 mmHg 55%
    21:00 +19°C° 0.5 mm 2 m/S 659 mmHg 55%
    22:00 +19°C° 0.5 mm 2 m/S 659 mmHg 56%
    23:00 +18°C° 0.5 mm 3 m/S 659 mmHg 56%

    27 April, Samstag

    Zeit Temperatur Niederschläge Wind Luftdruck Luftfeuchtigkeit
    00:00 +18°C° 0.2 mm 3 m/S 658 mmHg 56%
    01:00 +17°C° 0.2 mm 3 m/S 658 mmHg 56%
    02:00 +17°C° 0.2 mm 3 m/S 658 mmHg 55%
    03:00 +17°C° 0.1 mm 3 m/S 658 mmHg 54%
    04:00 +17°C° 0.1 mm 3 m/S 658 mmHg 53%
    05:00 +16°C° 0.1 mm 3 m/S 658 mmHg 52%
    06:00 +18°C° 0.1 mm 3 m/S 658 mmHg 49%
    07:00 +19°C° 0.1 mm 3 m/S 659 mmHg 45%
    08:00 +21°C° 0.1 mm 3 m/S 659 mmHg 41%
    09:00 +23°C° 0.1 mm 2 m/S 660 mmHg 38%
    10:00 +24°C° 0.1 mm 2 m/S 660 mmHg 36%
    11:00 +25°C° 0.1 mm 2 m/S 660 mmHg 33%
    12:00 +25°C° 0 mm 1 m/S 660 mmHg 32%
    13:00 +25°C° 0 mm 1 m/S 660 mmHg 30%
    14:00 +26°C° 0 mm 1 m/S 659 mmHg 29%
    15:00 +26°C° 0 mm 1 m/S 659 mmHg 28%
    16:00 +26°C° 0 mm 1 m/S 659 mmHg 28%
    17:00 +24°C° 0 mm 0 m/S 658 mmHg 28%
    18:00 +24°C° 0.3 mm 1 m/S 658 mmHg 33%
    19:00 +21°C° 0.3 mm 2 m/S 658 mmHg 38%
    20:00 +20°C° 0.3 mm 3 m/S 658 mmHg 43%
    21:00 +19°C° 0.6 mm 3 m/S 658 mmHg 45%
    22:00 +18°C° 0.6 mm 3 m/S 658 mmHg 48%
    23:00 +17°C° 0.6 mm 3 m/S 658 mmHg 50%
    Mehr zeigen